Date String (YYYY-MM-DD hh:mm:ss) UTC,Instrument flags,Ambient pressure (hPa),Sample flow (lpm),Bypass flow (lpm),Sample temperature (°C),Ambient temperature (°C),ASC tube jacket temperature (°C),LED temperature (°C),Box temperature (°C),Sample RH (%),Span deviation,Mass concentration (μg/m³),Mass concentration (μg/m³),Mass concentration (μg/m³)
DateTimeUTC,F1_M11,P_M11,Q1_M11,Q2_M11,T1_M11,T2_M11,T3_M11,T4_M11,T5_M11,U1_M11,ZSPAN_M11,X0_M11,X2_M11,X1_M11
2021-08-31 20:00:00,,0822.7,5.01,0.00,28.9,26.5,00.0,37.9,30.5,14.2,0001.5,0038.75,0022.45,0020.60
2021-08-31 20:01:00,,0822.6,5.00,0.00,28.7,25.5,00.0,37.8,30.1,13.7,0001.4,0038.62,0022.48,0020.70
2021-08-31 20:02:00,,0822.7,4.99,0.00,28.7,25.9,00.0,37.8,30.2,13.3,0001.3,0038.68,0022.64,0020.85
2021-08-31 20:03:00,,0822.6,5.00,0.00,28.7,26.3,00.0,37.8,30.3,13.8,0001.0,0038.17,0022.73,0020.95
2021-08-31 20:04:00,,0822.6,4.99,0.00,28.7,26.7,00.0,37.8,30.4,14.1,0000.5,0037.87,0022.75,0021.03
2021-08-31 20:05:00,,0822.6,5.00,0.00,28.8,27.1,00.0,37.8,30.6,14.5,0000.6,0037.64,0022.79,0021.10
2021-08-31 20:06:00,,0822.6,5.00,0.00,28.8,27.4,00.0,37.8,30.7,14.4,0000.4,0037.57,0022.88,0021.17
2021-08-31 20:07:00,,0822.6,5.00,0.00,28.9,27.7,00.0,37.8,30.8,14.0,0000.5,0037.54,0023.03,0021.28
2021-08-31 20:08:00,,0822.6,5.01,0.00,28.9,26.7,00.0,37.8,30.5,13.5,0000.8,0037.18,0023.10,0021.36
2021-08-31 20:09:00,,0822.6,5.00,0.00,28.7,25.6,00.0,37.8,30.1,13.6,0001.0,0035.53,0023.17,0021.47
2021-08-31 20:10:00,,0822.6,5.00,0.00,28.7,26.0,00.0,37.8,30.2,14.3,0001.1,0034.82,0023.24,0021.58
2021-08-31 20:11:00,,0822.6,4.99,0.00,28.7,26.4,00.0,37.8,30.4,14.1,0000.7,0034.03,0023.23,0021.62
2021-08-31 20:12:00,,0822.6,5.01,0.00,28.7,26.8,00.0,37.8,30.5,13.7,0000.4,0035.09,0023.36,0021.74
2021-08-31 20:13:00,,0822.6,4.99,0.00,28.8,27.2,00.0,37.8,30.6,14.0,0000.4,0035.58,0023.45,0021.82
2021-08-31 20:14:00,,0822.6,4.99,0.00,28.9,27.6,00.0,37.8,30.8,14.1,0000.7,0036.46,0023.60,0021.94
2021-08-31 20:15:00,,0822.6,5.00,0.00,28.9,27.8,00.0,37.8,30.8,13.3,0001.1,0036.56,0023.70,0022.05
2021-08-31 20:16:00,,0822.5,5.01,0.00,28.9,26.7,00.0,37.8,30.5,13.4,0000.9,0036.05,0023.76,0022.14
2021-08-31 20:17:00,,0822.5,5.00,0.00,28.8,25.6,00.0,37.8,30.2,13.6,0000.8,0037.07,0023.78,0022.23
2021-08-31 20:18:00,,0822.6,5.00,0.00,28.7,26.0,00.0,37.8,30.3,13.8,0000.5,0038.47,0023.85,0022.29
2021-08-31 20:19:00,,0822.5,5.00,0.00,28.7,26.4,00.0,37.8,30.4,13.4,0000.4,0039.85,0023.95,0022.30
2021-08-31 20:20:00,,0822.5,5.01,0.00,28.7,26.8,00.0,37.8,30.5,12.9,0000.3,0041.02,0023.97,0022.31
2021-08-31 20:21:00,,0822.5,5.00,0.00,28.8,27.2,00.0,37.8,30.7,12.8,0000.3,0041.92,0024.03,0022.36
2021-08-31 20:22:00,,0822.5,5.00,0.00,28.9,27.6,00.0,37.8,30.8,12.6,0000.4,0043.00,0024.16,0022.43
2021-08-31 20:23:00,,0822.5,5.00,0.00,28.9,27.3,00.0,37.8,30.7,12.3,0000.7,0042.35,0024.09,0022.35
2021-08-31 20:24:00,,0822.4,5.00,0.00,28.8,25.8,00.0,37.8,30.3,12.6,0000.6,0042.45,0023.99,0022.30
2021-08-31 20:25:00,,0822.4,5.01,0.00,28.7,25.6,00.0,37.8,30.2,12.9,0000.5,0042.26,0023.88,0022.23
2021-08-31 20:26:00,,0822.4,4.99,0.00,28.7,26.1,00.0,37.8,30.3,12.4,0000.3,0041.52,0023.72,0022.11
2021-08-31 20:27:00,,0822.4,4.99,0.00,28.7,26.6,00.0,37.8,30.4,12.6,0000.4,0041.98,0023.62,0022.01
2021-08-31 20:28:00,,0822.4,4.99,0.00,28.7,27.0,00.0,37.8,30.6,12.7,0000.6,0041.45,0023.51,0021.88
2021-08-31 20:29:00,,0822.4,5.00,0.00,28.8,27.4,00.0,37.8,30.7,12.3,0000.6,0040.70,0023.38,0021.80
2021-08-31 20:30:00,,0822.5,5.00,0.00,28.9,27.7,00.0,37.8,30.8,12.1,0000.5,0038.63,0023.27,0021.80
2021-08-31 20:31:00,,0822.4,4.99,0.00,28.9,27.9,00.0,37.8,30.9,12.6,0000.6,0037.55,0023.20,0021.74
2021-08-31 20:32:00,,0822.4,5.01,0.00,28.9,26.8,00.0,37.8,30.6,12.6,0000.8,0037.74,0023.24,0021.71
2021-08-31 20:33:00,,0822.4,4.99,0.00,28.8,25.8,00.0,37.8,30.3,12.1,0001.1,0036.84,0023.16,0021.65
2021-08-31 20:34:00,,0822.4,5.00,0.00,28.8,26.1,00.0,37.8,30.3,12.2,0001.1,0035.61,0023.10,0021.66
2021-08-31 20:35:00,,0822.4,5.00,0.00,28.7,26.5,00.0,37.8,30.4,12.3,0001.0,0035.41,0023.08,0021.65
2021-08-31 20:36:00,,0822.4,4.99,0.00,28.8,26.9,00.0,37.8,30.5,11.9,0001.1,0035.04,0023.10,0021.67
2021-08-31 20:37:00,,0822.4,5.00,0.00,28.8,27.3,00.0,37.8,30.7,11.9,0001.4,0035.41,0023.16,0021.74
2021-08-31 20:38:00,,0822.4,4.99,0.00,28.9,27.6,00.0,37.8,30.8,12.4,0001.2,0035.21,0023.25,0021.80
2021-08-31 20:39:00,,0822.4,5.00,0.00,29.0,27.8,00.0,37.9,30.8,12.8,0000.9,0035.07,0023.32,0021.86
2021-08-31 20:40:00,,0822.4,5.01,0.00,28.9,26.8,00.0,37.9,30.6,12.0,0001.2,0035.21,0023.34,0021.84
2021-08-31 20:41:00,,0822.4,5.00,0.00,28.8,25.7,00.0,37.8,30.2,11.9,0001.4,0035.29,0023.32,0021.81
2021-08-31 20:42:00,,0822.4,5.00,0.00,28.8,26.0,00.0,37.8,30.3,12.1,0001.5,0035.46,0023.28,0021.79
2021-08-31 20:43:00,,0822.4,5.01,0.00,28.7,26.4,00.0,37.8,30.4,12.3,0001.4,0034.84,0023.12,0021.74
2021-08-31 20:44:00,,0822.4,4.99,0.00,28.8,26.9,00.0,37.8,30.5,12.4,0001.1,0035.23,0023.07,0021.70
2021-08-31 20:45:00,,0822.4,5.00,0.00,28.8,27.2,00.0,37.8,30.7,12.6,0001.1,0035.88,0023.06,0021.66
2021-08-31 20:46:00,,0822.4,4.99,0.00,28.9,27.5,00.0,37.8,30.8,13.0,0001.3,0036.30,0023.14,0021.67
2021-08-31 20:47:00,,0822.4,5.02,0.00,28.9,27.3,00.0,37.8,30.7,12.5,0001.0,0035.72,0023.15,0021.66
2021-08-31 20:48:00,,0822.4,4.99,0.00,28.8,25.8,00.0,37.8,30.3,12.7,0001.0,0035.76,0023.15,0021.65
2021-08-31 20:49:00,,0822.4,5.00,0.00,28.7,25.7,00.0,37.8,30.2,12.8,0001.0,0035.74,0023.15,0021.63
2021-08-31 20:50:00,,0822.4,5.00,0.00,28.7,26.2,00.0,37.8,30.3,13.0,0001.1,0035.79,0023.20,0021.59
2021-08-31 20:51:00,,0822.4,5.01,0.00,28.7,26.5,00.0,37.8,30.4,13.0,0000.8,0036.38,0023.29,0021.66
2021-08-31 20:52:00,,0822.4,4.99,0.00,28.7,26.9,00.0,37.8,30.5,12.8,0000.7,0036.08,0023.31,0021.67
2021-08-31 20:53:00,,0822.3,5.01,0.00,28.8,27.3,00.0,37.8,30.7,13.1,0000.5,0036.26,0023.30,0021.68
2021-08-31 20:54:00,,0822.3,4.99,0.00,28.9,27.7,00.0,37.8,30.8,13.1,0000.0,0036.37,0023.41,0021.74
2021-08-31 20:55:00,,0822.4,5.01,0.00,29.0,27.9,00.0,37.8,30.9,13.0,-000.1,0036.04,0023.42,0021.76
2021-08-31 20:56:00,,0822.3,5.00,0.00,29.0,27.6,00.0,37.9,30.8,12.1,-000.5,0035.50,0023.42,0021.76
2021-08-31 20:57:00,,0822.3,5.00,0.00,28.9,26.1,00.0,37.9,30.4,12.2,-000.8,0035.35,0023.34,0021.74
2021-08-31 20:58:00,,0822.3,5.00,0.00,28.8,25.8,00.0,37.9,30.3,11.9,-000.7,0036.15,0023.25,0021.69
2021-08-31 20:59:00,,0822.4,5.00,0.00,28.8,26.3,00.0,37.8,30.4,12.0,-000.8,0036.06,0023.16,0021.63
